QPF
0.00 0.01 0.02 0.03 0.04 0.06 0.12 0.11 0.09 0.04 0.04 0.06 0.09 0.10 0.09 0.06 0.05 0.04 0.02 0.01 0.01 0.00 0.00 0.00 0.00 0.00 0.00 0.00 0.00 0.00 0.00 0.00 0.00 0.00 0.00 0.00 0.00 0.00 0.00 0.00 0.00 0.00 0.00 0.00
0.01 0.01 0.03 0.05 0.04 0.05 0.07 0.06 0.07 0.06 0.05 0.04 0.08 0.10 0.08 0.05 0.04 0.03 0.02 0.01 0.01 0.00 0.00 0.00 0.00 0.00 0.00 0.00 0.00 0.00 0.00 0.00 0.00 0.00 0.00 0.00 0.00 0.00 0.00 0.00 0.00 0.00 0.00 0.00
0.02 0.01 0.04 0.06 0.04 0.06 0.07 0.05 0.06 0.07 0.05 0.03 0.04 0.04 0.03 0.03 0.03 0.02 0.02 0.01 0.01 0.01 0.00 0.00 0.00 0.00 0.00 0.00 0.00 0.00 0.00 0.00 0.00 0.00 0.00 0.00 0.00 0.00 0.00 0.00 0.00 0.00 0.00 0.00
0.03 0.03 0.05 0.04 0.04 0.06 0.08 0.06 0.05 0.04 0.02 0.01 0.01 0.01 0.01 0.02 0.02 0.01 0.01 0.01 0.01 0.00 0.00 0.00 0.00 0.00 0.00 0.00 0.00 0.00 0.00 0.00 0.00 0.00 0.00 0.00 0.00 0.00 0.00 0.00 0.00 0.00 0.00 0.00
0.05 0.04 0.03 0.05 0.07 0.07 0.08 0.06 0.04 0.02 0.01 0.01 0.01 0.01 0.01 0.01 0.01 0.01 0.00 0.00 0.00 0.00 0.00 0.00 0.00 0.00 0.00 0.00 0.00 0.00 0.00 0.00 0.00 0.00 0.00 0.00 0.00 0.00 0.00 0.00 0.00 0.00 0.00 0.00
0.05 0.06 0.05 0.06 0.05 0.04 0.07 0.07 0.03 0.02 0.01 0.01 0.01 0.01 0.01 0.01 0.01 0.00 0.00 0.00 0.00 0.00 0.00 0.00 0.00 0.00 0.00 0.00 0.00 0.00 0.00 0.00 0.00 0.00 0.00 0.00 0.00 0.00 0.00 0.00 0.00 0.00 0.00 0.00
0.04 0.05 0.03 0.04 0.03 0.03 0.04 0.05 0.02 0.01 0.00 0.00 0.00 0.00 0.00 0.01 0.01 0.00 0.00 0.00 0.00 0.00 0.00 0.00 0.00 0.00 0.00 0.00 0.00 0.00 0.00 0.00 0.00 0.00 0.00 0.00 0.00 0.00 0.00 0.00 0.00 0.00 0.00 0.00
0.01 0.02 0.02 0.02 0.02 0.02 0.01 0.01 0.01 0.01 0.00 0.00 0.01 0.00 0.00 0.00 0.00 0.00 0.00 0.00 0.00 0.00 0.00 0.00 0.00 0.00 0.00 0.00 0.00 0.00 0.00 0.00 0.00 0.00 0.00 0.00 0.00 0.00 0.00 0.00 0.00 0.00 0.00 0.00
0.00 0.00 0.01 0.01 0.01 0.00 0.00 0.00 0.00 0.00 0.00 0.00 0.00 0.00 0.01 0.01 0.00 0.00 0.00 0.00 0.00 0.00 0.00 0.00 0.00 0.00 0.00 0.00 0.00 0.00 0.00 0.00 0.00 0.00 0.00 0.00 0.00 0.00 0.00 0.00 0.00 0.00 0.00 0.00
0.00 0.00 0.00 0.00 0.01 0.01 0.00 0.00 0.00 0.00 0.00 0.00 0.00 0.00 0.01 0.01 0.00 0.00 0.00 0.00 0.00 0.00 0.00 0.00 0.00 0.00 0.00 0.00 0.00 0.00 0.00 0.00 0.00 0.00 0.00 0.00 0.00 0.00 0.00 0.00 0.00 0.00 0.00 0.00
0.00 0.00 0.00 0.00 0.00 0.00 0.00 0.00 0.00 0.00 0.00 0.00 0.00 0.00 0.00 0.00 0.00 0.00 0.00 0.00 0.00 0.00 0.00 0.00 0.00 0.00 0.00 0.00 0.00 0.00 0.00 0.00 0.00 0.00 0.00 0.00 0.00 0.00 0.00 0.00 0.00 0.00 0.00 0.00
0.00 0.00 0.00 0.00 0.00 0.00 0.00 0.00 0.00 0.00 0.00 0.00 0.00 0.00 0.00 0.00 0.00 0.00 0.00 0.00 0.00 0.00 0.00 0.00 0.00 0.00 0.00 0.00 0.00 0.00 0.00 0.00 0.00 0.00 0.00 0.00 0.00 0.00 0.00 0.00 0.00 0.00 0.00 0.00
0.01 0.00 0.00 0.00 0.00 0.00 0.00 0.00 0.00 0.00 0.00 0.00 0.00 0.00 0.00 0.00 0.00 0.00 0.00 0.00 0.00 0.00 0.00 0.00 0.00 0.00 0.00 0.00 0.00 0.00 0.00 0.00 0.00 0.00 0.00 0.00 0.00 0.00 0.00 0.00 0.00 0.00 0.00 0.00
0.00 0.00 0.00 0.00 0.00 0.00 0.00 0.00 0.00 0.00 0.00 0.00 0.00 0.00 0.00 0.00 0.00 0.00 0.00 0.00 0.00 0.00 0.00 0.00 0.00 0.00 0.00 0.00 0.00 0.00 0.00 0.00 0.00 0.00 0.00 0.00 0.00 0.00 0.00 0.00 0.00 0.00 0.00 0.00
0.00 0.00 0.00 0.00 0.00 0.00 0.00 0.00 0.00 0.00 0.00 0.00 0.00 0.00 0.00 0.00 0.00 0.00 0.00 0.00 0.00 0.00 0.00 0.00 0.00 0.00 0.00 0.00 0.00 0.00 0.00 0.00 0.00 0.00 0.00 0.00 0.00 0.00 0.00 0.00 0.00 0.00 0.00 0.00
0.00 0.00 0.00 0.00 0.00 0.00 0.00 0.00 0.00 0.00 0.00 0.00 0.00 0.00 0.00 0.00 0.00 0.00 0.00 0.00 0.00 0.00 0.00 0.00 0.00 0.00 0.00 0.00 0.00 0.00 0.00 0.00 0.00 0.00 0.00 0.00 0.00 0.00 0.00 0.00 0.00 0.00 0.00 0.00
0.00 0.00 0.00 0.00 0.00 0.00 0.00 0.00 0.00 0.00 0.00 0.00 0.00 0.00 0.00 0.00 0.00 0.00 0.00 0.00 0.00 0.00 0.00 0.00 0.00 0.00 0.00 0.00 0.00 0.00 0.00 0.00 0.00 0.00 0.00 0.00 0.00 0.00 0.00 0.00 0.00 0.00 0.00 0.00
0.00 0.00 0.00 0.00 0.00 0.00 0.00 0.00 0.00 0.00 0.00 0.00 0.00 0.00 0.00 0.00 0.00 0.00 0.00 0.00 0.00 0.00 0.00 0.00 0.00 0.00 0.00 0.00 0.00 0.00 0.00 0.00 0.00 0.00 0.00 0.00 0.00 0.00 0.00 0.00 0.00 0.00 0.00 0.00
0.00 0.00 0.00 0.00 0.00 0.00 0.00 0.01 0.01 0.01 0.00 0.00 0.00 0.00 0.00 0.00 0.00 0.00 0.00 0.00 0.00 0.00 0.00 0.00 0.00 0.00 0.00 0.00 0.00 0.00 0.00 0.00 0.00 0.00 0.00 0.00 0.00 0.00 0.00 0.00 0.00 0.00 0.00 0.00
0.00 0.00 0.00 0.00 0.00 0.01 0.01 0.01 0.01 0.01 0.00 0.00 0.00 0.00 0.00 0.00 0.00 0.00 0.00 0.00 0.00 0.00 0.00 0.00 0.00 0.00 0.00 0.00 0.00 0.00 0.00 0.00 0.00 0.00 0.00 0.00 0.00 0.00 0.00 0.00 0.00 0.00 0.00 0.00
0.00 0.00 0.00 0.00 0.00 0.01 0.01 0.01 0.01 0.00 0.00 0.00 0.00 0.00 0.00 0.00 0.00 0.00 0.00 0.00 0.00 0.00 0.00 0.00 0.00 0.00 0.00 0.00 0.00 0.00 0.00 0.00 0.00 0.00 0.00 0.00 0.00 0.00 0.00 0.00 0.00 0.00 0.00 0.00
0.00 0.01 0.01 0.01 0.01 0.01 0.00 0.00 0.00 0.00 0.00 0.00 0.00 0.00 0.00 0.00 0.00 0.00 0.00 0.00 0.00 0.00 0.00 0.00 0.00 0.00 0.00 0.00 0.00 0.00 0.00 0.00 0.00 0.00 0.00 0.00 0.00 0.00 0.00 0.00 0.00 0.00 0.00 0.00
0.01 0.01 0.01 0.01 0.01 0.00 0.00 0.00 0.00 0.00 0.00 0.00 0.00 0.00 0.00 0.00 0.00 0.00 0.00 0.00 0.00 0.00 0.00 0.00 0.00 0.00 0.00 0.00 0.00 0.00 0.00 0.00 0.00 0.00 0.00 0.00 0.00 0.00 0.00 0.00 0.00 0.00 0.00 0.00
0.01 0.01 0.01 0.01 0.01 0.01 0.00 0.00 0.00 0.00 0.00 0.00 0.00 0.00 0.00 0.00 0.00 0.00 0.00 0.00 0.00 0.00 0.00 0.00 0.00 0.00 0.00 0.00 0.00 0.00 0.00 0.00 0.00 0.00 0.00 0.00 0.00 0.00 0.00 0.00 0.00 0.00 0.00 0.00
0.00 0.01 0.01 0.01 0.01 0.01 0.01 0.00 0.00 0.00 0.00 0.00 0.00 0.00 0.00 0.00 0.00 0.00 0.00 0.00 0.00 0.00 0.00 0.00 0.00 0.00 0.00 0.00 0.00 0.00 0.00 0.00 0.00 0.00 0.00 0.00 0.00 0.00 0.00 0.00 0.00 0.00 0.00 0.00
0.01 0.01 0.01 0.01 0.02 0.02 0.01 0.01 0.00 0.00 0.00 0.00 0.00 0.00 0.00 0.00 0.00 0.00 0.00 0.00 0.00 0.00 0.00 0.00 0.00 0.00 0.00 0.00 0.00 0.00 0.00 0.00 0.00 0.00 0.00 0.00 0.00 0.00 0.00 0.00 0.00 0.00 0.00 0.00
0.00 0.01 0.02 0.02 0.03 0.02 0.01 0.01 0.00 0.00 0.00 0.00 0.00 0.00 0.00 0.00 0.00 0.00 0.00 0.00 0.00 0.00 0.00 0.00 0.00 0.00 0.00 0.00 0.00 0.00 0.00 0.00 0.00 0.00 0.00 0.00 0.00 0.00 0.00 0.00 0.00 0.00 0.00 0.00
MSLP
1009.72 1009.58 1009.39 1009.14 1008.76 1008.22 1007.48 1006.55 1005.44 1004.21 1002.92 1001.67 1000.55 999.62 998.95 998.57 998.47 998.63 999.03 999.61 1000.34 1001.19 1002.12 1003.12 1004.19 1005.31 1006.47 1007.66 1008.85 1010.02 1011.14 1012.19 1013.16 1014.06 1014.89 1015.67 1016.41 1017.13 1017.82 1018.48 1019.09 1019.60 1020.00 1020.26
1009.18 1008.90 1008.57 1008.15 1007.65 1007.02 1006.26 1005.37 1004.38 1003.33 1002.28 1001.29 1000.44 999.77 999.33 999.14 999.19 999.46 999.94 1000.57 1001.34 1002.20 1003.15 1004.16 1005.22 1006.32 1007.46 1008.61 1009.74 1010.85 1011.90 1012.89 1013.80 1014.64 1015.43 1016.17 1016.87 1017.55 1018.19 1018.80 1019.34 1019.79 1020.13 1020.32
1008.64 1008.23 1007.74 1007.18 1006.54 1005.82 1005.04 1004.20 1003.33 1002.47 1001.66 1000.95 1000.39 1000.01 999.82 999.85 1000.08 1000.48 1001.04 1001.73 1002.51 1003.37 1004.29 1005.26 1006.28 1007.33 1008.41 1009.49 1010.56 1011.60 1012.59 1013.53 1014.40 1015.20 1015.95 1016.65 1017.31 1017.93 1018.52 1019.06 1019.53 1019.91 1020.17 1020.30
1008.07 1007.53 1006.91 1006.22 1005.48 1004.70 1003.91 1003.13 1002.38 1001.71 1001.14 1000.71 1000.43 1000.34 1000.42 1000.67 1001.07 1001.60 1002.24 1002.96 1003.74 1004.56 1005.43 1006.34 1007.28 1008.25 1009.25 1010.26 1011.26 1012.25 1013.19 1014.09 1014.93 1015.71 1016.43 1017.09 1017.71 1018.28 1018.80 1019.26 1019.65 1019.94 1020.14 1020.21
1007.45 1006.82 1006.10 1005.33 1004.53 1003.72 1002.95 1002.25 1001.64 1001.15 1000.81 1000.63 1000.62 1000.78 1001.10 1001.54 1002.10 1002.73 1003.43 1004.15 1004.91 1005.68 1006.48 1007.30 1008.15 1009.04 1009.95 1010.90 1011.85 1012.79 1013.71 1014.59 1015.41 1016.17 1016.87 1017.50 1018.07 1018.58 1019.02 1019.40 1019.70 1019.92 1020.04 1020.06
1006.74 1006.07 1005.32 1004.53 1003.73 1002.95 1002.25 1001.65 1001.18 1000.87 1000.73 1000.77 1000.98 1001.35 1001.85 1002.44 1003.11 1003.81 1004.53 1005.24 1005.96 1006.67 1007.39 1008.13 1008.90 1009.70 1010.55 1011.44 1012.35 1013.27 1014.18 1015.05 1015.87 1016.62 1017.30 1017.90 1018.41 1018.85 1019.22 1019.50 1019.71 1019.84 1019.89 1019.86
1005.96 1005.31 1004.60 1003.86 1003.13 1002.45 1001.86 1001.39 1001.07 1000.92 1000.96 1001.16 1001.54 1002.05 1002.66 1003.34 1004.06 1004.79 1005.50 1006.19 1006.86 1007.51 1008.16 1008.83 1009.54 1010.29 1011.09 1011.95 1012.84 1013.75 1014.65 1015.52 1016.33 1017.07 1017.72 1018.28 1018.74 1019.11 1019.38 1019.58 1019.69 1019.74 1019.72 1019.64
1005.12 1004.55 1003.95 1003.34 1002.75 1002.23 1001.80 1001.49 1001.33 1001.33 1001.49 1001.82 1002.29 1002.87 1003.53 1004.24 1004.96 1005.67 1006.36 1007.01 1007.63 1008.23 1008.83 1009.46 1010.13 1010.86 1011.64 1012.48 1013.37 1014.27 1015.17 1016.03 1016.83 1017.55 1018.16 1018.67 1019.06 1019.35 1019.54 1019.64 1019.67 1019.64 1019.55 1019.42
1004.27 1003.84 1003.41 1002.99 1002.61 1002.29 1002.06 1001.93 1001.92 1002.05 1002.31 1002.70 1003.21 1003.80 1004.45 1005.13 1005.82 1006.48 1007.12 1007.73 1008.32 1008.89 1009.48 1010.09 1010.75 1011.47 1012.26 1013.10 1013.97 1014.87 1015.75 1016.59 1017.36 1018.04 1018.60 1019.04 1019.36 1019.57 1019.68 1019.70 1019.65 1019.55 1019.40 1019.22
1003.48 1003.23 1003.01 1002.83 1002.69 1002.60 1002.58 1002.63 1002.77 1003.01 1003.34 1003.76 1004.25 1004.81 1005.41 1006.03 1006.65 1007.26 1007.85 1008.42 1008.99 1009.56 1010.15 1010.77 1011.45 1012.18 1012.97 1013.80 1014.67 1015.54 1016.39 1017.19 1017.90 1018.52 1019.01 1019.38 1019.63 1019.76 1019.79 1019.74 1019.63 1019.47 1019.28 1019.06
1002.80 1002.76 1002.77 1002.84 1002.95 1003.10 1003.29 1003.52 1003.79 1004.11 1004.48 1004.90 1005.37 1005.86 1006.39 1006.93 1007.48 1008.04 1008.59 1009.14 1009.71 1010.29 1010.90 1011.55 1012.25 1012.99 1013.78 1014.60 1015.43 1016.26 1017.04 1017.77 1018.41 1018.94 1019.36 1019.65 1019.83 1019.90 1019.87 1019.77 1019.61 1019.41 1019.19 1018.94
1002.31 1002.46 1002.69 1002.98 1003.33 1003.70 1004.08 1004.47 1004.85 1005.25 1005.65 1006.06 1006.48 1006.92 1007.38 1007.85 1008.35 1008.86 1009.39 1009.94 1010.51 1011.12 1011.76 1012.43 1013.14 1013.89 1014.66 1015.44 1016.21 1016.96 1017.66 1018.30 1018.84 1019.28 1019.62 1019.83 1019.95 1019.97 1019.90 1019.78 1019.60 1019.38 1019.14 1018.88
1002.04 1002.34 1002.75 1003.23 1003.76 1004.31 1004.85 1005.37 1005.85 1006.31 1006.74 1007.14 1007.54 1007.94 1008.35 1008.78 1009.24 1009.73 1010.26 1010.81 1011.41 1012.04 1012.70 1013.39 1014.10 1014.82 1015.55 1016.27 1016.96 1017.61 1018.21 1018.73 1019.17 1019.52 1019.77 1019.92 1019.99 1019.98 1019.90 1019.76 1019.58 1019.37 1019.13 1018.86
1001.98 1002.39 1002.93 1003.54 1004.20 1004.88 1005.53 1006.15 1006.71 1007.22 1007.68 1008.10 1008.50 1008.89 1009.29 1009.71 1010.16 1010.66 1011.19 1011.77 1012.38 1013.02 1013.69 1014.37 1015.06 1015.74 1016.40 1017.04 1017.63 1018.17 1018.65 1019.06 1019.39 1019.65 1019.83 1019.94 1019.98 1019.95 1019.87 1019.75 1019.58 1019.38 1019.15 1018.89
1002.11 1002.59 1003.18 1003.87 1004.60 1005.35 1006.07 1006.75 1007.38 1007.94 1008.45 1008.91 1009.33 1009.75 1010.17 1010.62 1011.09 1011.61 1012.16 1012.76 1013.39 1014.03 1014.69 1015.35 1015.99 1016.61 1017.19 1017.72 1018.20 1018.63 1019.00 1019.30 1019.55 1019.73 1019.86 1019.93 1019.95 1019.92 1019.86 1019.75 1019.60 1019.42 1019.20 1018.94
1002.41 1002.89 1003.50 1004.19 1004.94 1005.71 1006.46 1007.19 1007.86 1008.47 1009.03 1009.55 1010.03 1010.51 1010.98 1011.47 1011.99 1012.54 1013.13 1013.74 1014.37 1015.01 1015.64 1016.26 1016.84 1017.39 1017.88 1018.32 1018.70 1019.03 1019.30 1019.51 1019.68 1019.81 1019.89 1019.94 1019.95 1019.93 1019.88 1019.79 1019.66 1019.49 1019.28 1019.02
1002.83 1003.28 1003.85 1004.50 1005.22 1005.98 1006.73 1007.47 1008.18 1008.84 1009.46 1010.05 1010.61 1011.16 1011.71 1012.26 1012.83 1013.43 1014.04 1014.66 1015.29 1015.91 1016.50 1017.07 1017.59 1018.07 1018.48 1018.84 1019.14 1019.39 1019.58 1019.73 1019.85 1019.94 1019.99 1020.02 1020.03 1020.01 1019.96 1019.87 1019.75 1019.58 1019.36 1019.09
1003.33 1003.73 1004.23 1004.82 1005.49 1006.20 1006.93 1007.67 1008.40 1009.11 1009.79 1010.45 1011.09 1011.72 1012.35 1012.97 1013.59 1014.22 1014.85 1015.48 1016.09 1016.69 1017.25 1017.77 1018.24 1018.65 1019.01 1019.31 1019.55 1019.74 1019.89 1020.01 1020.09 1020.14 1020.18 1020.19 1020.19 1020.16 1020.09 1020.00 1019.86 1019.68 1019.45 1019.15
1003.90 1004.23 1004.66 1005.18 1005.78 1006.43 1007.13 1007.86 1008.60 1009.34 1010.08 1010.81 1011.52 1012.22 1012.91 1013.59 1014.26 1014.91 1015.55 1016.17 1016.77 1017.33 1017.86 1018.34 1018.77 1019.15 1019.47 1019.73 1019.95 1020.12 1020.24 1020.33 1020.39 1020.43 1020.44 1020.44 1020.41 1020.35 1020.27 1020.14 1019.98 1019.77 1019.50 1019.19
1004.53 1004.81 1005.17 1005.61 1006.14 1006.75 1007.41 1008.12 1008.86 1009.63 1010.40 1011.18 1011.94 1012.70 1013.43 1014.14 1014.84 1015.50 1016.14 1016.75 1017.32 1017.86 1018.36 1018.81 1019.22 1019.57 1019.88 1020.13 1020.34 1020.50 1020.61 1020.69 1020.74 1020.75 1020.74 1020.71 1020.64 1020.55 1020.43 1020.27 1020.07 1019.83 1019.53 1019.18
1005.21 1005.45 1005.76 1006.15 1006.63 1007.19 1007.81 1008.50 1009.24 1010.02 1010.81 1011.61 1012.40 1013.18 1013.94 1014.67 1015.36 1016.02 1016.65 1017.23 1017.78 1018.29 1018.77 1019.20 1019.59 1019.94 1020.24 1020.49 1020.70 1020.86 1020.97 1021.04 1021.07 1021.06 1021.02 1020.95 1020.85 1020.71 1020.55 1020.35 1020.12 1019.84 1019.52 1019.15
1005.94 1006.16 1006.45 1006.81 1007.25 1007.78 1008.38 1009.05 1009.78 1010.54 1011.34 1012.14 1012.94 1013.72 1014.47 1015.19 1015.87 1016.51 1017.11 1017.67 1018.19 1018.68 1019.13 1019.55 1019.93 1020.27 1020.56 1020.81 1021.02 1021.17 1021.27 1021.32 1021.33 1021.29 1021.22 1021.11 1020.97 1020.79 1020.59 1020.36 1020.10 1019.81 1019.47 1019.09
1006.70 1006.93 1007.22 1007.57 1008.00 1008.51 1009.10 1009.75 1010.46 1011.22 1012.00 1012.79 1013.57 1014.33 1015.06 1015.75 1016.40 1017.01 1017.57 1018.10 1018.59 1019.05 1019.47 1019.87 1020.23 1020.56 1020.85 1021.09 1021.27 1021.41 1021.49 1021.52 1021.49 1021.42 1021.31 1021.16 1020.98 1020.78 1020.55 1020.31 1020.03 1019.73 1019.40 1019.02
1007.46 1007.71 1008.01 1008.38 1008.82 1009.34 1009.92 1010.57 1011.27 1012.01 1012.77 1013.53 1014.28 1015.01 1015.71 1016.36 1016.98 1017.54 1018.07 1018.56 1019.01 1019.44 1019.84 1020.20 1020.54 1020.84 1021.10 1021.31 1021.47 1021.57 1021.62 1021.60 1021.54 1021.43 1021.28 1021.11 1020.90 1020.68 1020.45 1020.19 1019.92 1019.63 1019.30 1018.93
1008.14 1008.44 1008.78 1009.19 1009.66 1010.19 1010.79 1011.44 1012.13 1012.85 1013.59 1014.33 1015.05 1015.74 1016.40 1017.02 1017.60 1018.13 1018.62 1019.07 1019.49 1019.87 1020.23 1020.56 1020.86 1021.12 1021.33 1021.50 1021.61 1021.66 1021.66 1021.60 1021.50 1021.36 1021.18 1020.98 1020.76 1020.53 1020.29 1020.05 1019.79 1019.50 1019.19 1018.83
1008.71 1009.06 1009.46 1009.91 1010.42 1010.99 1011.61 1012.27 1012.97 1013.68 1014.40 1015.12 1015.81 1016.48 1017.11 1017.69 1018.24 1018.74 1019.19 1019.61 1019.99 1020.34 1020.66 1020.94 1021.19 1021.39 1021.55 1021.66 1021.71 1021.71 1021.65 1021.55 1021.41 1021.23 1021.03 1020.81 1020.58 1020.35 1020.12 1019.88 1019.63 1019.36 1019.04 1018.67
1009.12 1009.53 1009.98 1010.50 1011.06 1011.67 1012.32 1013.00 1013.70 1014.41 1015.13 1015.83 1016.51 1017.15 1017.76 1018.33 1018.85 1019.33 1019.76 1020.16 1020.50 1020.82 1021.09 1021.32 1021.51 1021.66 1021.75 1021.80 1021.79 1021.73 1021.62 1021.48 1021.29 1021.09 1020.87 1020.64 1020.41 1020.17 1019.94 1019.70 1019.44 1019.15 1018.82 1018.43
Thickness
5528 5531 5530 5531 5533 5530 5522 5523 5526 5546 5550 5562 5563 5557 5553 5548 5541 5535 5535 5536 5540 5546 5553 5559 5563 5566 5567 5567 5566 5566 5564 5560 5554 5548 5541 5534 5527 5520 5513 5507 5501 5494 5488 5481
5527 5533 5534 5537 5543 5542 5539 5538 5537 5541 5550 5565 5564 5559 5556 5552 5545 5538 5536 5535 5537 5542 5549 5553 5556 5558 5559 5559 5558 5558 5555 5549 5543 5537 5530 5523 5516 5510 5503 5497 5490 5483 5477 5471
5531 5539 5538 5546 5555 5551 5549 5550 5547 5549 5561 5569 5567 5566 5563 5559 5552 5545 5541 5540 5540 5543 5547 5549 5551 5554 5554 5553 5552 5549 5545 5539 5533 5527 5520 5513 5506 5500 5494 5487 5480 5473 5467 5461
5525 5534 5539 5562 5562 5556 5554 5559 5561 5563 5568 5571 5571 5569 5567 5565 5561 5555 5550 5547 5545 5545 5546 5546 5547 5548 5547 5546 5544 5540 5535 5529 5523 5517 5510 5503 5497 5490 5483 5477 5470 5464 5458 5451
5522 5533 5549 5563 5559 5555 5554 5562 5571 5571 5575 5575 5573 5574 5572 5568 5567 5563 5559 5554 5550 5547 5545 5543 5542 5543 5542 5539 5536 5531 5526 5520 5513 5508 5501 5494 5487 5480 5473 5466 5460 5454 5447 5441
5520 5528 5543 5563 5563 5559 5556 5566 5575 5573 5576 5577 5577 5582 5576 5568 5568 5566 5561 5555 5549 5544 5541 5540 5538 5538 5538 5533 5529 5523 5517 5510 5504 5497 5491 5484 5476 5469 5462 5457 5450 5444 5437 5431
5519 5527 5548 5564 5563 5560 5563 5570 5574 5573 5575 5575 5578 5575 5567 5567 5566 5563 5557 5551 5546 5542 5539 5537 5536 5535 5532 5527 5520 5513 5506 5499 5493 5486 5479 5472 5465 5458 5452 5446 5440 5434 5429 5422
5527 5531 5548 5566 5563 5564 5571 5574 5573 5573 5573 5571 5567 5562 5562 5561 5558 5554 5549 5545 5542 5539 5535 5532 5532 5530 5525 5517 5509 5502 5495 5488 5480 5474 5467 5461 5455 5448 5442 5436 5431 5425 5419 5412
5544 5554 5566 5564 5566 5569 5568 5570 5571 5570 5567 5565 5561 5557 5555 5553 5551 5547 5543 5540 5537 5533 5529 5526 5524 5521 5515 5504 5498 5491 5484 5476 5469 5463 5456 5451 5445 5439 5433 5426 5421 5415 5409 5402
5545 5558 5564 5567 5569 5568 5566 5565 5562 5560 5560 5560 5557 5552 5548 5545 5542 5539 5535 5533 5530 5527 5523 5518 5513 5508 5502 5495 5488 5482 5474 5466 5459 5453 5446 5440 5434 5429 5423 5417 5410 5404 5398 5392
5549 5559 5564 5571 5568 5565 5558 5554 5552 5551 5552 5553 5550 5545 5542 5538 5535 5531 5527 5525 5523 5519 5514 5508 5502 5495 5490 5485 5479 5472 5464 5456 5450 5443 5437 5431 5424 5417 5412 5404 5397 5391 5387 5380
5558 5564 5564 5568 5560 5555 5554 5549 5546 5544 5542 5541 5541 5537 5534 5530 5526 5523 5519 5516 5513 5508 5503 5497 5491 5485 5479 5474 5470 5464 5455 5447 5440 5434 5427 5421 5415 5408 5398 5392 5385 5379 5372 5365
5560 5558 5557 5553 5550 5547 5546 5541 5539 5537 5535 5532 5530 5528 5525 5521 5517 5513 5510 5506 5502 5497 5492 5487 5481 5474 5468 5464 5460 5454 5447 5438 5431 5424 5418 5411 5404 5398 5392 5384 5375 5369 5361 5353
5551 5550 5551 5549 5545 5539 5535 5532 5529 5527 5525 5523 5520 5518 5515 5511 5507 5503 5499 5495 5491 5487 5482 5477 5471 5463 5458 5453 5448 5442 5435 5426 5420 5414 5406 5400 5393 5386 5380 5374 5368 5362 5352 5343
5546 5547 5549 5539 5532 5528 5525 5524 5521 5518 5515 5512 5510 5508 5505 5502 5497 5492 5488 5485 5482 5477 5472 5466 5460 5452 5447 5442 5437 5430 5423 5416 5409 5402 5395 5388 5382 5376 5370 5363 5357 5350 5343 5334
5533 5533 5532 5529 5524 5520 5520 5519 5517 5512 5508 5505 5502 5499 5495 5492 5487 5482 5479 5477 5474 5468 5461 5455 5448 5441 5435 5430 5424 5418 5411 5403 5397 5391 5385 5378 5372 5366 5360 5352 5345 5337 5328 5319
5528 5524 5521 5519 5519 5518 5518 5517 5513 5508 5503 5498 5493 5489 5486 5483 5478 5473 5469 5465 5461 5455 5449 5443 5436 5429 5424 5419 5414 5407 5400 5392 5385 5381 5375 5368 5362 5355 5348 5339 5331 5321 5311 5301
5533 5534 5532 5530 5525 5519 5514 5510 5505 5501 5495 5490 5486 5483 5481 5477 5470 5462 5456 5452 5447 5440 5434 5429 5423 5418 5412 5406 5401 5395 5389 5383 5377 5371 5365 5358 5352 5344 5335 5326 5316 5306 5296 5285
5527 5528 5527 5525 5521 5517 5510 5504 5498 5492 5486 5483 5481 5477 5472 5465 5459 5453 5448 5444 5438 5429 5421 5416 5411 5406 5401 5395 5390 5385 5379 5373 5367 5361 5354 5347 5340 5332 5322 5312 5301 5291 5281 5272
5520 5521 5519 5516 5513 5508 5502 5496 5490 5484 5480 5476 5471 5464 5457 5451 5447 5443 5438 5432 5426 5420 5412 5406 5400 5395 5390 5384 5379 5375 5370 5364 5358 5351 5344 5337 5328 5319 5308 5297 5287 5276 5267 5259
5510 5510 5508 5506 5501 5497 5492 5488 5483 5477 5470 5467 5464 5456 5447 5440 5436 5432 5427 5419 5409 5406 5401 5395 5391 5385 5380 5375 5370 5365 5360 5354 5348 5341 5333 5325 5315 5305 5294 5283 5273 5263 5255 5248
5500 5499 5497 5494 5490 5485 5480 5477 5473 5468 5462 5456 5450 5444 5437 5430 5425 5420 5415 5409 5401 5396 5391 5386 5381 5376 5371 5366 5361 5356 5350 5344 5337 5329 5321 5312 5302 5292 5281 5271 5261 5252 5245 5239
5488 5487 5485 5483 5479 5474 5468 5464 5460 5457 5451 5445 5440 5435 5429 5423 5418 5413 5403 5396 5392 5387 5382 5378 5373 5367 5362 5357 5352 5346 5340 5333 5326 5318 5309 5300 5289 5279 5269 5259 5250 5243 5237 5234
5477 5475 5472 5469 5466 5461 5454 5448 5444 5441 5437 5432 5427 5423 5418 5412 5405 5401 5396 5389 5384 5378 5374 5369 5363 5358 5353 5348 5342 5336 5330 5323 5315 5307 5298 5288 5278 5268 5258 5249 5242 5237 5234 5232
5463 5460 5458 5457 5455 5449 5442 5437 5431 5426 5422 5417 5412 5408 5405 5403 5398 5390 5385 5379 5374 5368 5363 5358 5353 5348 5343 5338 5332 5326 5320 5312 5305 5297 5288 5278 5268 5258 5250 5242 5236 5233 5232 5232
5450 5450 5448 5447 5444 5438 5434 5430 5425 5417 5412 5405 5399 5395 5392 5388 5384 5378 5373 5368 5363 5358 5352 5347 5343 5338 5334 5329 5323 5317 5310 5302 5294 5285 5277 5268 5259 5250 5243 5237 5233 5231 5232 5234
5437 5436 5434 5430 5427 5427 5425 5422 5417 5410 5405 5399 5391 5383 5380 5375 5371 5366 5361 5356 5351 5347 5342 5338 5334 5329 5324 5319 5314 5307 5301 5293 5285 5277 5268 5259 5250 5243 5237 5233 5231 5231 5233 5237